GFSSW_500_rhum_090.txt.gz
RH
42 40 41 44 44 42 42 44 39 37 35 33 33 36 46 39 34 26 25 25 25 25 25 24 20 20 27 37 28 26 43 45 41 46 31 22 14 7 6 8 9 10 20 26 20
38 37 35 36 41 43 43 41 37 37 35 37 36 40 43 50 38 35 26 25 26 26 26 25 22 21 34 38 31 26 44 46 40 44 35 22 13 9 7 12 12 12 20 20 20
46 43 41 39 38 33 38 38 38 36 34 39 38 37 42 56 52 40 40 29 27 27 27 26 23 24 38 38 32 28 49 52 37 40 34 24 13 9 8 9 12 15 15 40 43
38 39 39 39 34 35 29 31 30 31 38 38 46 46 37 50 56 50 49 43 34 32 29 26 29 38 42 40 34 33 48 56 49 38 34 26 14 10 7 6 8 14 28 30 39
30 31 32 33 35 35 36 34 29 32 34 29 43 43 49 41 78 67 66 70 51 37 37 33 36 46 46 43 33 37 46 51 54 46 38 29 17 10 9 10 14 17 25 28 36
26 26 25 26 29 32 36 37 37 37 34 31 28 49 51 47 72 79 74 80 79 44 42 45 48 52 45 37 33 33 45 53 52 48 42 35 20 12 12 12 14 12 23 31 33
22 24 23 23 27 30 31 30 29 36 40 44 37 37 43 72 66 85 86 81 86 74 45 49 57 58 47 38 35 43 45 50 57 53 46 40 22 16 13 15 18 16 23 25 24
19 19 16 18 21 23 28 30 29 39 49 49 53 46 48 70 71 76 78 87 92 100 69 52 56 60 56 41 40 47 49 52 59 51 49 44 25 17 13 15 19 19 23 21 23
20 20 18 18 18 17 23 25 21 28 47 52 67 65 64 78 81 81 85 88 93 98 96 66 50 53 51 47 45 43 55 64 65 51 46 45 38 19 15 20 24 22 23 20 19
20 20 19 18 18 18 24 27 33 34 47 60 76 74 80 76 74 79 84 89 90 97 86 92 67 54 53 49 46 71 74 75 59 57 50 48 44 20 18 18 27 21 23 22 19
16 16 15 15 15 17 19 21 33 33 52 69 77 86 90 85 77 77 78 87 89 85 89 96 93 59 73 84 73 71 72 69 66 68 64 58 36 24 19 19 27 24 24 29 20
10 10 9 8 7 8 9 10 18 30 34 73 80 74 100 93 84 78 79 79 83 91 94 80 73 99 100 91 82 63 71 76 69 69 73 60 37 35 19 18 28 26 23 32 24
9 9 8 7 6 6 5 5 7 12 33 58 91 84 96 93 83 68 81 82 76 83 92 88 90 98 96 95 94 73 80 91 68 68 73 62 45 50 34 17 25 29 23 27 34
9 8 8 7 6 5 4 4 4 5 19 51 72 89 91 90 98 71 72 78 86 79 94 90 82 84 96 96 98 87 99 90 72 70 75 56 40 48 33 19 17 23 24 26 34
6 6 5 4 4 3 3 3 4 5 24 41 63 80 79 88 92 92 92 50 62 73 75 82 55 35 80 97 95 95 93 96 84 77 64 60 47 48 37 20 20 27 24 22 38
5 5 4 4 4 3 3 2 2 13 18 28 66 78 97 60 98 80 82 63 56 81 68 71 82 34 26 76 85 98 99 95 86 90 66 58 64 49 50 22 20 28 25 26 32
6 5 4 4 4 3 3 2 2 5 17 24 46 91 37 51 72 78 70 76 30 49 85 72 62 38 22 65 67 61 89 97 98 86 71 56 65 56 50 34 25 31 29 26 27
8 7 6 6 5 3 3 2 2 3 20 48 55 80 99 25 57 74 20 37 45 36 32 35 75 59 56 57 42 51 83 98 98 98 88 57 50 60 82 68 26 34 26 31 29
10 10 10 7 5 4 3 2 2 2 9 70 84 87 88 24 49 29 68 60 35 38 38 16 18 78 62 48 27 32 67 92 96 96 80 70 49 53 74 75 30 24 29 26 37
12 12 9 6 4 4 4 2 2 2 11 52 95 72 55 21 19 35 11 46 56 54 22 32 12 13 35 83 79 31 28 44 84 85 88 65 52 46 54 79 72 19 28 26 46
12 12 10 6 4 4 4 3 4 4 13 38 100 76 73 40 14 62 11 13 54 31 40 45 27 12 16 19 16 42 60 28 33 51 62 58 56 33 54 76 88 56 23 46 47
13 11 12 8 7 6 5 6 6 7 11 28 60 100 98 88 52 69 37 14 15 24 18 10 41 30 15 26 30 19 13 12 12 27 40 45 51 46 52 71 90 91 38 28 34
18 17 15 10 7 7 10 11 12 10 10 20 22 88 91 82 44 66 10 35 48 25 6 4 4 8 9 9 50 52 26 16 12 14 22 35 63 47 46 48 81 97 51 49 45
27 23 15 8 12 12 19 18 15 12 11 15 14 29 26 65 63 26 28 18 9 6 14 5 5 5 5 7 9 9 22 19 16 15 14 17 31 36 45 51 78 98 97 86 69
28 22 13 10 22 28 31 21 17 13 12 11 13 16 34 43 91 79 29 17 10 8 6 5 5 4 4 3 5 12 12 9 13 28 27 27 28 29 27 41 54 79 97 96 95
26 20 10 21 33 34 33 24 18 14 12 11 10 9 11 62 91 72 68 61 52 40 12 6 4 3 2 2 2 3 3 3 9 7 6 5 5 12 24 30 43 59 97 83 88
16 9 9 30 36 38 35 27 20 17 13 12 14 9 8 7 8 41 62 30 9 7 6 5 3 3 2 2 3 5 3 3 3 4 5 6 9 8 7 10 24 48 70 93 78

GFSSW_500_rhum_096.txt.gz
RH
67 60 52 43 48 47 48 47 45 40 38 36 34 34 32 32 35 30 28 29 28 27 28 32 30 26 25 26 27 26 23 22 34 54 81 62 46 33 40 29 22 12 6 5 5
52 55 60 58 44 43 44 45 44 42 40 37 34 31 27 29 35 30 20 29 27 32 34 34 34 31 27 26 27 27 26 27 42 65 49 41 48 46 50 42 28 15 10 6 5
52 50 48 47 48 55 45 44 38 39 43 40 36 33 26 24 39 24 32 28 31 32 36 38 37 34 36 30 27 28 27 33 39 37 30 34 33 36 52 40 30 17 8 8 10
57 54 51 47 42 43 42 47 42 29 33 35 34 30 27 22 32 30 34 32 31 35 38 39 42 39 41 37 30 30 29 28 44 42 34 30 28 31 48 44 34 20 10 8 8
64 62 58 54 54 50 46 40 36 32 32 32 32 32 27 22 39 21 37 31 31 29 34 44 39 46 44 43 40 35 32 30 41 44 40 32 26 31 36 48 36 23 12 7 10
70 66 63 60 56 53 48 44 39 33 32 32 29 28 25 22 29 26 28 34 36 32 34 42 50 46 44 51 56 48 39 33 37 46 41 36 30 29 44 48 40 27 14 7 9
72 71 67 61 54 51 47 42 38 34 31 29 23 21 18 26 16 19 19 23 29 28 32 35 51 51 47 51 63 63 46 37 36 47 44 46 29 35 54 48 44 26 15 8 9
59 55 53 44 41 40 36 33 29 27 23 23 19 16 12 15 14 12 13 18 17 25 33 40 47 45 53 58 62 68 62 45 47 56 50 53 35 41 65 46 46 40 19 8 11
31 33 36 35 33 30 28 25 22 20 19 17 15 14 12 12 8 11 10 13 18 20 31 39 44 49 56 56 66 76 67 58 48 62 66 63 49 55 99 52 52 48 24 8 12
20 21 23 25 26 26 28 26 24 20 18 17 16 14 12 10 9 10 11 13 18 17 26 37 51 43 50 76 51 82 85 80 59 67 70 75 46 48 78 78 50 45 30 11 9
5 7 13 17 20 21 22 24 21 19 17 15 14 13 12 10 8 8 13 9 13 12 27 59 46 30 58 83 97 100 89 87 75 76 100 100 88 44 60 67 79 73 42 23 10
2 3 3 4 9 16 18 18 19 18 15 14 12 12 10 9 8 9 11 10 25 28 54 67 29 61 79 96 100 99 94 86 92 75 77 81 62 45 58 55 65 57 48 51 12
2 2 2 2 2 3 8 16 17 16 16 16 13 12 11 10 8 8 8 12 21 37 57 69 56 68 86 97 95 89 92 98 96 96 93 92 85 42 54 61 67 65 61 52 20
2 2 2 3 2 2 2 3 10 14 15 15 14 13 11 9 9 8 7 8 15 28 60 64 75 81 82 84 99 92 99 98 93 100 84 100 76 64 50 54 76 50 47 44 17
3 3 3 4 4 3 3 2 2 4 9 14 12 13 12 11 10 8 7 7 8 33 83 49 64 93 96 85 99 92 99 99 95 96 98 87 83 62 53 58 70 80 55 47 15
2 3 3 4 4 4 4 4 3 3 3 5 10 10 11 9 7 6 5 6 8 37 62 56 82 71 83 98 95 100 100 80 95 99 76 84 98 73 61 68 92 96 65 39 16
3 4 4 6 6 7 6 6 5 5 2 8 43 12 9 9 7 6 4 4 11 47 66 76 94 95 90 94 98 100 74 37 71 85 64 93 97 82 83 95 100 98 62 34 17
6 9 8 9 13 12 9 7 6 3 3 14 80 95 25 8 7 5 4 4 14 37 84 93 79 88 72 54 97 84 96 48 25 76 94 96 81 83 89 98 91 99 64 41 26
45 26 14 14 15 12 12 10 5 6 9 86 59 94 12 20 5 5 4 9 70 65 62 99 87 83 67 52 96 95 90 75 28 88 97 95 93 97 98 97 98 78 74 71 55
62 50 29 28 24 19 17 9 8 12 9 11 12 18 73 98 68 21 34 50 40 78 98 99 100 99 77 44 91 90 100 91 28 48 71 99 98 99 96 98 98 97 81 68 66
79 58 49 37 36 28 15 12 13 12 12 8 8 8 40 100 99 100 73 99 61 71 84 84 97 100 76 58 70 97 92 75 98 76 69 84 96 98 97 95 95 98 100 86 75
75 65 61 62 65 29 17 20 17 15 12 10 9 8 22 98 80 100 100 100 74 70 89 81 65 54 95 41 40 83 56 97 71 79 93 92 87 98 98 90 98 98 100 89 81
83 75 73 94 74 38 27 23 20 16 15 11 9 6 13 82 84 100 100 70 62 97 98 69 66 68 94 99 53 49 60 78 100 72 90 96 73 94 95 97 99 98 96 86 79
83 78 71 74 83 83 60 31 21 17 15 12 8 7 15 27 98 83 98 64 54 74 91 82 43 37 58 100 75 55 100 98 97 99 93 77 80 98 90 96 97 98 98 93 86
61 70 98 98 90 80 53 68 100 68 15 11 8 7 9 61 39 33 66 49 46 54 70 91 81 37 31 79 62 37 30 31 34 61 64 41 62 100 99 93 94 87 98 100 97
56 86 86 77 100 100 90 34 65 93 68 43 22 11 14 42 37 17 44 51 55 54 82 49 90 68 17 13 10 8 30 20 41 70 78 78 57 50 33 31 23 33 67 69 91
72 85 78 74 98 81 98 100 37 85 98 89 96 91 59 58 44 23 35 39 63 89 81 80 93 29 47 22 5 5 5 14 4 4 12 17 22 28 46 53 40 31 29 77 100

GFSSW_500_rhum_099.txt.gz
RH
47 54 51 50 53 61 61 58 46 39 41 44 40 36 29 31 34 25 31 29 27 23 23 24 29 30 30 31 28 26 27 27 25 28 41 35 78 60 47 26 30 34 27 22 15
48 46 45 44 48 45 54 52 59 48 39 36 40 40 36 34 32 33 22 29 26 23 19 23 28 28 32 33 31 30 30 28 27 27 28 35 31 36 47 32 34 42 37 28 20
39 45 48 50 45 44 47 48 48 49 49 42 38 37 35 32 36 32 31 27 28 26 25 23 25 24 31 35 34 32 28 31 29 28 34 39 36 32 36 33 38 42 45 36 21
40 37 39 48 59 54 48 44 44 44 42 48 57 54 50 30 35 36 32 32 28 25 28 28 27 21 25 33 38 30 32 34 33 28 29 32 38 40 29 36 33 41 46 37 22
48 43 42 48 55 66 66 62 57 53 50 47 41 37 36 33 38 24 29 32 31 26 27 29 27 26 21 35 38 33 37 39 41 33 31 38 44 45 32 38 37 40 43 40 25
51 43 44 55 61 66 71 71 69 63 56 50 44 42 37 30 29 24 24 31 28 27 29 31 33 31 22 22 26 39 32 36 44 45 34 34 47 44 33 49 44 37 46 41 25
60 60 62 59 58 62 63 66 67 63 56 53 50 44 40 37 30 27 23 26 25 20 26 26 28 23 21 17 20 29 24 29 39 49 44 48 37 41 38 50 46 38 47 42 32
40 40 41 43 44 48 55 56 52 53 46 46 43 44 40 33 30 25 19 16 16 15 17 24 20 13 9 11 12 17 16 12 37 56 53 77 41 48 43 52 47 37 40 41 38
8 9 10 11 14 18 26 29 30 39 36 40 36 39 33 28 26 21 18 16 13 13 13 14 11 9 10 14 12 12 9 16 22 67 66 69 59 56 46 51 49 44 46 53 42
4 4 4 4 4 5 6 8 16 23 26 26 26 27 28 25 22 20 17 15 13 12 11 10 13 11 8 10 6 24 38 30 21 63 97 76 79 86 59 72 54 48 47 36 34
2 2 2 2 2 2 3 3 4 7 15 20 22 22 20 18 16 14 12 11 10 9 9 18 11 6 18 32 36 38 35 20 26 47 95 68 77 88 85 66 69 52 50 45 54
2 2 2 2 1 1 2 2 2 3 6 7 16 20 19 15 18 12 12 11 12 10 14 15 7 22 41 44 38 36 33 23 28 69 98 83 64 79 68 62 59 71 63 61 54
2 2 1 1 2 2 2 2 2 1 2 5 5 10 17 15 16 12 10 10 9 9 9 8 10 35 33 38 38 30 44 58 65 93 91 87 62 64 75 51 63 70 67 64 52
2 2 2 2 2 2 2 2 2 2 2 2 2 3 9 15 16 14 10 10 9 9 9 8 13 22 25 27 55 30 72 80 92 98 65 98 51 71 76 68 54 59 61 60 50
2 2 2 2 2 3 3 2 2 2 3 2 2 2 3 7 14 14 13 12 11 9 10 10 15 26 27 24 60 52 76 89 95 92 77 73 76 44 89 90 92 63 58 66 47
3 4 3 3 2 3 3 3 4 5 4 2 3 2 4 7 8 11 13 11 9 8 7 7 9 10 13 42 62 75 91 98 99 90 65 72 81 52 64 95 94 96 87 81 44
5 4 4 3 3 4 7 7 9 11 4 3 4 16 4 4 5 7 9 10 8 6 5 8 6 12 44 75 74 70 93 98 94 77 54 73 83 60 74 86 94 94 71 62 60
7 5 4 4 4 8 24 46 13 10 8 43 52 83 99 67 34 12 10 9 9 6 4 5 8 14 32 45 82 76 82 89 80 70 76 84 59 72 97 88 98 98 98 88 74
7 5 10 18 52 52 36 53 11 12 13 12 64 100 71 93 99 100 36 12 7 14 8 8 4 12 44 84 89 83 88 72 100 100 96 87 75 85 100 88 87 92 98 77 58
9 10 58 60 55 77 59 24 14 15 22 21 20 41 93 100 97 53 76 49 33 29 7 8 6 32 40 97 83 84 90 99 97 90 92 84 97 97 98 75 100 78 96 96 74
16 30 59 62 50 92 50 25 19 23 38 71 35 100 100 68 48 91 100 47 100 56 68 39 8 61 87 84 95 86 91 94 75 100 84 51 74 100 98 92 98 93 100 93 98
21 29 55 61 72 69 61 43 27 24 42 49 28 70 91 94 63 54 100 74 72 100 99 66 57 99 90 95 96 99 100 98 100 100 88 61 47 95 98 96 96 98 78 100 87
23 28 59 100 100 80 74 55 35 31 28 22 22 31 74 88 46 60 100 100 60 100 100 100 81 94 98 99 98 100 85 91 98 98 96 66 56 92 94 88 98 98 97 92 98
16 26 42 66 100 100 100 97 43 34 28 25 17 12 15 18 57 54 100 98 87 92 100 100 83 78 90 100 100 93 100 93 86 80 82 85 92 99 96 99 98 94 98 100 99
14 45 52 66 91 88 99 77 100 98 78 23 19 14 14 17 12 23 100 92 93 53 100 99 100 95 90 100 93 100 83 94 86 82 68 72 78 97 83 99 96 100 97 95 95
21 56 39 63 100 98 85 79 96 100 100 100 36 16 14 11 12 8 32 39 69 97 90 82 70 98 82 69 95 97 65 46 83 98 89 81 89 98 87 99 100 90 91 98 92
50 67 56 69 68 88 97 100 95 58 96 94 96 74 23 13 8 6 7 23 26 69 95 58 49 69 92 69 31 72 69 44 30 32 42 57 59 90 77 93 92 85 77 71 59

GFSSW_500_rhum_102.txt.gz
RH
39 43 43 40 40 41 44 50 53 49 55 58 53 44 35 32 34 32 33 32 33 28 30 25 27 21 21 28 23 20 15 25 26 28 27 26 22 22 28 28 25 29 34 21 21
50 45 43 42 41 43 42 40 36 42 45 51 49 48 49 40 34 38 33 37 36 27 28 32 28 19 18 29 20 17 16 27 29 29 29 28 26 24 29 35 30 34 27 22 22
53 52 48 47 41 39 39 39 40 37 36 36 41 43 41 46 43 38 35 36 37 33 29 26 31 21 18 24 25 21 14 30 30 31 31 30 29 26 28 38 42 51 45 31 21
69 65 55 45 44 41 37 38 44 44 42 40 37 38 39 38 47 54 47 36 37 35 33 34 33 23 25 20 36 15 16 28 31 34 34 31 31 29 29 38 47 55 45 29 24
81 76 69 64 58 51 44 37 32 35 35 41 42 42 38 38 50 36 43 48 39 36 33 33 32 31 27 28 33 14 22 22 28 37 36 35 33 34 30 34 45 43 49 39 35
83 78 73 67 62 57 50 44 40 35 32 38 45 50 43 45 48 43 39 38 35 30 28 29 33 32 25 23 24 26 14 15 19 26 30 35 46 42 36 46 49 50 43 42 40
70 64 65 67 64 58 55 53 52 52 47 50 41 46 48 55 49 44 41 40 38 31 28 32 32 27 25 23 25 18 10 9 15 30 37 43 28 44 42 45 45 44 46 41 45
13 14 15 18 17 20 31 29 27 39 41 42 43 43 31 45 42 43 40 38 36 32 27 28 26 21 16 16 16 18 11 7 9 31 42 52 13 38 47 48 50 45 49 44 46
6 5 5 4 4 4 7 7 5 8 12 22 29 33 28 38 40 39 39 35 34 29 26 20 17 14 13 13 12 11 7 7 12 46 64 58 18 32 57 52 50 51 52 47 44
4 4 3 3 2 2 3 2 2 2 3 5 7 15 19 25 28 28 29 29 29 26 22 20 16 13 12 11 7 11 11 10 9 45 75 58 14 18 41 50 53 59 47 47 40
3 3 2 2 2 2 2 2 3 3 2 2 3 4 7 10 20 25 24 21 21 21 19 18 18 20 13 14 16 16 9 6 9 17 43 49 24 32 47 59 54 46 44 56 62
4 3 3 2 2 2 2 2 2 2 4 2 2 3 3 4 8 14 20 19 18 16 15 14 19 17 18 20 18 15 12 9 12 29 37 48 18 21 51 56 59 57 51 58 65
4 4 3 3 2 2 2 2 2 1 1 3 2 2 2 2 4 7 14 17 16 14 14 13 14 17 21 24 18 11 9 10 12 47 34 36 4 15 46 69 76 64 61 51 56
4 3 3 2 2 2 2 2 2 2 2 1 1 1 2 2 2 3 11 12 14 14 10 10 10 10 12 9 21 10 27 21 18 26 18 51 6 21 50 69 79 75 79 81 64
4 3 2 2 2 2 2 3 3 3 3 2 1 2 2 2 3 3 5 13 12 14 11 14 11 9 9 10 36 14 47 31 31 29 31 32 35 7 46 62 78 78 86 96 76
3 3 3 3 3 3 3 3 3 3 2 2 2 2 3 3 2 3 4 8 14 13 12 14 12 13 13 14 19 29 47 52 52 49 23 33 63 20 39 76 85 78 100 97 95
4 3 4 5 5 4 4 4 4 4 5 4 4 13 43 43 6 7 6 9 16 16 14 13 12 10 9 8 9 19 54 54 43 32 15 36 62 36 57 81 70 69 66 80 70
4 6 8 6 6 5 4 5 49 35 14 28 19 30 29 10 20 15 7 14 17 15 13 11 10 9 8 8 17 58 69 56 56 50 57 75 52 52 67 73 72 69 60 77 75
9 9 8 6 10 8 17 64 100 100 45 14 67 92 67 26 77 78 43 5 14 15 11 9 8 9 12 17 43 49 90 80 87 74 64 72 67 62 78 88 66 72 85 99 72
8 6 10 16 20 39 85 88 100 97 61 41 20 80 100 100 100 100 88 86 33 41 21 14 9 6 6 17 31 49 80 94 86 76 75 59 63 73 85 91 100 80 100 97 93
6 15 17 22 56 52 77 82 65 69 51 36 52 62 100 100 100 100 99 100 99 82 65 23 24 12 24 21 40 55 75 100 100 93 81 70 69 88 96 86 98 88 88 92 86
12 16 22 51 67 80 76 100 77 41 38 29 99 76 100 100 100 100 100 79 26 77 69 41 28 15 48 64 39 75 98 99 91 75 79 73 69 87 96 94 98 100 92 85 82
10 14 22 44 79 100 100 89 69 46 35 28 95 88 67 100 96 76 80 69 63 55 97 95 78 91 68 98 96 100 100 100 100 100 85 85 99 84 89 91 98 97 98 88 83
9 11 18 31 74 100 100 100 89 65 37 30 34 46 48 99 100 89 67 59 89 93 84 100 100 99 85 100 92 100 100 94 94 89 86 96 93 93 99 99 94 98 98 99 80
14 12 13 28 46 81 75 80 100 100 79 51 28 25 19 35 99 100 92 76 43 100 100 100 100 97 85 100 100 100 100 99 100 100 70 99 100 100 100 93 94 95 99 98 94
15 14 11 24 82 100 56 63 87 100 100 100 99 44 23 17 22 71 55 39 78 87 100 100 100 100 96 86 94 100 100 100 100 89 98 80 100 96 74 78 96 97 93 98 98
18 15 13 23 52 99 99 71 92 92 98 98 100 71 25 17 15 14 12 13 20 77 90 100 100 100 100 92 78 100 100 100 100 100 100 100 99 96 79 62 84 100 100 98 98

GFSSW_500_rhum_108.txt.gz
RH
57 52 50 48 51 50 50 54 46 43 42 44 38 38 37 38 46 49 52 57 50 40 35 34 32 30 26 23 20 17 12 10 19 25 24 19 17 15 11 16 18 23 26 24 23
58 59 57 55 54 57 63 62 59 53 47 40 39 42 37 36 40 49 49 50 56 51 45 46 41 36 32 30 26 21 15 14 28 29 27 22 11 15 12 14 18 24 28 27 26
70 68 61 64 67 65 71 74 78 69 57 51 46 42 40 39 43 46 45 40 46 52 50 47 45 44 38 38 34 28 20 23 30 33 26 24 16 15 12 12 21 26 29 30 27
76 85 89 84 79 75 76 76 71 74 77 69 58 51 46 39 44 46 43 44 48 48 50 50 45 43 37 39 44 32 25 27 33 34 28 23 24 12 11 15 24 29 33 32 34
83 92 93 88 89 84 85 83 79 77 76 77 73 66 60 51 60 40 41 43 48 53 49 46 49 51 47 43 39 32 27 26 30 32 28 26 22 16 13 20 26 36 37 32 29
75 75 81 90 97 95 95 96 94 84 82 82 78 74 69 63 58 51 46 43 42 48 58 53 51 48 44 51 50 43 35 32 30 28 32 30 26 21 22 30 31 37 39 33 22
73 76 90 99 100 94 85 79 81 83 82 78 70 64 67 63 63 58 51 44 40 40 47 55 57 51 45 40 42 45 43 43 40 32 34 39 18 17 27 34 36 39 26 18 19
76 85 90 91 78 78 74 57 43 28 13 16 39 51 49 30 29 41 45 48 47 39 40 56 59 54 48 44 42 39 36 31 33 31 33 54 19 23 26 30 36 28 18 20 26
93 92 92 88 86 74 62 82 91 81 56 34 23 15 31 21 15 15 22 24 27 34 37 47 49 50 51 47 43 40 35 34 30 29 35 43 20 26 26 31 28 19 20 23 25
62 46 27 16 12 21 30 9 5 4 14 28 66 54 29 15 10 9 9 10 12 16 25 34 42 41 41 42 29 41 40 37 33 34 47 44 21 26 26 23 20 17 22 25 28
6 5 5 6 7 6 5 6 5 4 4 4 4 4 5 3 4 4 3 4 4 8 13 21 34 23 34 41 41 41 40 36 35 37 35 32 17 18 20 17 20 17 20 23 28
7 8 7 8 9 8 7 6 5 5 4 4 3 3 3 2 4 3 2 4 3 3 3 7 13 22 29 34 36 37 36 34 31 32 35 38 16 14 14 11 15 19 24 28 26
12 10 10 13 13 10 8 8 7 6 4 3 3 3 3 2 2 2 2 2 2 2 4 3 7 11 21 27 28 29 31 31 33 44 43 27 18 17 17 11 12 12 13 19 20
12 15 18 19 15 12 10 9 8 6 4 3 3 3 3 2 2 2 2 2 2 2 2 2 5 6 10 16 23 25 26 29 31 44 28 40 22 18 15 15 17 17 19 19 13
20 24 24 16 14 14 11 10 8 5 3 3 3 3 2 2 2 2 2 2 2 2 2 2 2 4 7 9 20 20 25 33 40 40 31 22 21 18 22 30 44 31 19 16 11
26 28 24 18 15 13 11 8 5 3 3 3 2 2 2 2 2 2 2 2 2 2 2 2 2 2 5 11 16 22 22 28 37 42 26 26 27 17 19 19 33 28 22 15 10
30 30 23 19 16 13 7 4 3 3 3 3 3 3 3 5 5 4 3 3 2 3 2 2 2 2 4 9 15 19 21 30 33 30 17 20 28 16 19 25 26 26 23 18 11
31 30 23 17 11 5 4 4 4 4 4 4 19 41 59 59 61 46 29 61 12 6 8 3 2 2 2 7 12 16 18 23 22 21 17 23 17 16 18 26 22 19 13 16 14
29 25 16 8 5 4 4 4 5 5 12 56 82 100 83 100 89 91 92 100 85 100 46 15 3 2 2 5 11 12 14 14 22 23 19 15 13 14 18 26 21 14 13 16 26
20 13 9 6 6 6 5 6 10 23 53 86 72 89 100 86 96 100 99 100 100 99 61 40 13 24 4 4 10 11 11 15 24 20 20 14 14 15 18 32 20 14 25 33 34
13 9 8 7 7 7 7 8 16 44 45 47 61 62 100 82 99 100 100 100 100 100 100 96 44 60 49 17 11 12 10 13 17 26 21 16 16 15 20 27 20 24 27 38 42
9 8 8 8 8 9 8 9 26 40 50 45 43 80 100 100 100 100 100 93 55 53 92 100 87 47 58 70 52 27 15 26 24 15 18 17 13 14 17 24 30 51 54 41 42
11 8 10 10 10 12 9 10 18 32 59 50 32 43 66 96 100 100 100 100 100 100 100 98 94 66 57 69 78 79 60 25 23 26 27 29 15 29 35 32 35 46 49 54 54
12 12 13 11 16 13 10 10 26 34 39 61 40 31 32 42 92 98 98 99 100 100 100 100 99 88 77 73 88 76 56 53 39 40 19 26 26 32 41 42 51 54 63 69 87
14 15 14 12 22 17 11 12 12 42 44 58 64 28 30 36 30 52 86 98 98 100 100 100 100 100 100 65 77 82 63 36 32 34 41 30 35 36 53 91 71 83 100 94 89
16 17 14 14 23 17 13 14 12 51 59 65 67 61 30 38 28 20 32 65 99 100 100 99 64 100 100 94 78 68 68 93 39 26 25 25 24 26 40 60 93 93 97 98 98
20 19 13 21 25 21 21 17 19 34 61 54 69 71 60 70 49 27 17 16 26 69 83 90 87 49 100 100 93 68 71 100 95 64 75 67 77 84 81 77 91 91 99 98 96

GFSSW_500_rhum_114.txt.gz
RH
34 31 27 25 22 21 22 22 21 23 25 32 39 39 44 58 61 54 47 46 50 48 48 51 50 46 36 26 20 23 14 10 14 27 28 26 18 13 13 11 12 11 12 10 13
35 32 29 24 25 21 21 19 18 18 20 26 31 35 41 52 65 62 59 54 52 49 51 51 52 56 48 39 32 24 18 16 21 30 32 28 23 13 13 15 13 12 12 15 17
33 32 31 26 25 25 21 20 16 15 17 21 27 30 30 39 47 63 67 68 59 55 48 56 55 58 55 60 49 39 25 32 25 40 40 35 28 21 16 15 18 16 15 17 19
32 31 30 30 28 25 23 22 21 20 23 20 30 36 44 62 73 64 67 73 74 69 62 55 57 60 51 55 63 57 44 40 35 45 45 41 36 27 23 21 21 18 18 19 22
33 25 25 26 28 26 24 21 21 22 24 25 37 47 56 81 91 85 83 88 82 80 77 66 60 59 60 52 52 47 56 51 50 49 45 44 39 34 30 26 30 21 22 23 23
41 35 29 30 30 28 25 25 26 27 27 28 30 34 46 68 64 79 83 87 92 88 85 81 71 62 55 55 54 48 43 48 49 48 53 49 47 45 37 34 36 31 27 26 26
45 38 35 37 32 29 29 26 26 24 24 25 27 32 41 54 61 76 81 50 68 84 94 88 79 78 61 54 50 50 46 44 41 44 46 47 39 43 43 42 41 35 29 26 25
48 40 39 32 34 34 30 25 23 25 28 33 38 42 43 37 33 53 83 52 50 74 62 91 81 84 73 64 57 55 48 45 46 40 43 53 36 45 41 42 42 39 34 32 28
49 45 35 32 36 33 28 26 31 34 35 34 25 21 14 14 16 18 8 12 56 87 80 26 16 86 88 74 60 52 46 49 51 48 54 49 44 61 50 47 44 38 36 32 32
53 42 34 34 36 38 40 34 40 40 33 28 25 16 12 8 6 6 5 5 4 4 42 84 73 28 41 86 62 55 52 52 57 62 53 51 44 48 46 48 47 46 43 38 33
51 39 36 37 35 43 46 40 37 36 27 23 19 14 9 6 6 6 5 5 4 3 3 3 62 53 38 16 65 78 79 55 51 57 52 50 50 48 46 42 38 35 37 36 32
47 42 44 42 39 45 46 47 40 30 28 21 9 6 6 6 6 6 5 4 4 4 3 3 3 16 48 22 7 16 42 56 46 49 49 52 43 50 47 42 39 35 31 32 33
50 53 58 53 53 49 44 41 35 31 18 11 8 8 8 7 6 6 4 4 3 3 3 3 4 6 5 20 42 27 18 17 27 37 41 43 35 43 45 43 40 38 35 31 27
55 69 68 56 52 48 37 35 37 25 14 12 10 10 8 7 5 4 4 3 3 2 2 2 2 3 3 3 4 8 27 9 14 23 29 36 28 36 32 34 37 39 36 33 29
70 82 64 53 60 36 31 36 26 17 15 13 12 9 7 5 4 4 3 2 2 2 2 1 2 2 2 2 7 5 4 5 4 10 20 24 25 24 29 28 30 36 35 33 30
86 79 59 70 32 32 36 30 24 19 16 13 10 8 7 6 4 2 2 3 2 4 3 1 2 3 2 2 2 3 3 3 3 4 10 16 22 22 22 24 27 27 32 34 30
91 72 72 48 28 34 33 29 28 21 16 12 10 8 6 4 3 3 5 58 82 88 98 32 2 2 2 3 3 3 3 3 3 3 10 18 16 17 21 24 26 26 28 29 30
82 72 80 32 36 39 36 35 28 21 15 11 9 5 5 4 4 17 72 98 100 100 92 96 32 60 3 3 3 4 3 5 3 12 11 29 10 12 19 22 24 28 28 27 26
74 84 73 50 51 42 40 36 27 19 13 9 5 5 6 6 6 41 77 83 99 100 100 86 87 78 98 4 8 5 10 2 46 80 78 52 8 9 12 19 21 26 29 27 27
84 88 68 57 49 46 42 33 24 16 9 6 5 7 7 7 11 41 62 86 98 100 100 100 71 90 100 33 15 18 4 23 71 47 15 22 42 56 14 21 23 26 28 26 24
94 83 72 53 53 48 40 30 17 12 6 7 10 11 8 10 15 32 91 80 93 100 100 95 90 98 97 100 87 19 19 81 48 18 69 75 74 100 33 22 21 22 23 20 18
96 84 66 63 58 50 33 21 13 8 7 10 17 10 10 18 28 58 59 74 93 100 100 100 100 94 98 100 76 55 29 85 86 51 32 90 88 96 42 23 19 18 18 18 15
98 87 85 73 60 36 24 15 9 9 10 17 18 10 10 23 57 48 46 57 95 100 100 100 97 98 99 98 95 89 77 100 100 100 100 59 73 84 51 20 16 16 16 14 14
99 94 87 76 46 27 17 12 9 10 16 24 19 11 9 24 44 42 32 41 79 99 100 100 100 100 96 100 100 100 100 72 79 100 60 100 98 100 51 26 14 15 21 17 15
100 94 87 64 30 20 13 9 10 15 25 28 20 14 9 11 30 61 35 32 55 97 99 100 100 100 100 86 72 93 100 100 88 52 100 50 81 100 20 50 51 24 17 16 16
97 94 60 38 22 15 12 11 14 21 36 30 23 21 13 10 28 42 38 26 37 85 94 93 100 100 100 93 61 52 65 97 98 100 68 35 32 100 48 19 82 60 28 37 29
96 82 42 25 17 12 12 12 16 30 40 31 24 25 18 19 30 42 53 32 22 38 63 42 92 62 94 100 94 89 72 67 75 95 87 100 83 38 32 49 59 33 29 33 26

GFSSW_500_rhum_117.txt.gz
RH
30 29 26 24 22 19 15 15 14 16 15 18 18 17 18 17 18 20 27 32 42 43 47 47 47 42 42 37 44 38 20 12 19 28 32 39 26 24 19 20 12 17 17 14 10
34 33 31 28 22 18 19 18 18 15 16 15 14 12 14 11 10 13 13 19 26 41 49 48 51 50 46 44 46 47 42 22 29 32 33 34 26 29 18 20 18 16 19 16 15
39 34 32 28 23 20 17 16 14 14 13 12 12 11 11 9 10 14 16 18 23 30 40 52 56 55 52 52 48 51 44 45 34 37 37 32 28 31 24 19 25 21 18 18 16
42 37 34 32 29 24 20 17 16 14 14 14 12 11 12 12 15 11 13 19 27 43 56 68 64 67 59 56 58 46 52 62 56 44 34 38 36 31 30 23 29 30 24 16 21
44 48 43 40 35 30 27 23 20 17 15 14 14 14 17 17 17 17 18 25 37 53 70 83 80 81 74 66 65 55 54 65 65 63 48 44 38 36 32 34 33 32 31 23 25
54 52 50 44 37 32 28 24 21 19 18 17 17 17 18 18 24 26 30 30 34 48 63 72 91 92 79 76 68 67 61 53 57 62 60 60 49 49 37 39 36 36 33 28 30
56 53 51 47 41 34 32 26 23 23 21 18 19 19 18 21 23 27 33 36 40 47 61 73 81 80 89 90 78 69 64 58 50 54 58 64 64 53 54 59 49 44 42 37 31
66 57 53 49 43 38 34 26 29 27 22 18 22 26 24 22 23 24 26 19 21 28 46 39 72 91 60 95 90 89 75 60 56 60 61 66 35 56 59 55 52 48 52 46 40
73 64 54 51 48 42 32 28 28 26 23 19 28 31 23 22 22 20 18 10 7 6 7 20 28 22 67 56 83 87 74 75 70 76 72 55 41 56 71 61 47 43 44 43 41
80 66 58 60 55 42 32 32 34 36 29 27 28 26 22 23 24 21 15 9 6 5 5 5 4 9 40 31 71 42 79 89 67 70 82 59 50 55 59 59 47 47 45 38 36
74 66 67 70 53 40 34 39 43 34 31 29 26 28 28 22 18 10 7 6 6 6 6 5 5 4 4 5 12 68 62 24 92 93 77 70 61 56 57 58 48 51 49 46 44
74 73 78 62 49 42 52 50 45 35 34 32 33 31 26 15 10 9 9 9 8 7 6 5 5 4 4 4 4 5 24 77 58 53 98 75 59 58 56 50 49 45 46 46 45
82 89 73 60 50 47 61 52 49 49 37 32 33 28 21 14 12 12 11 10 7 6 4 4 4 6 4 4 4 4 4 19 53 24 75 80 71 61 53 51 51 47 45 42 42
92 88 74 63 58 58 56 48 50 42 34 33 30 24 19 17 15 13 11 8 5 4 3 3 3 2 2 3 3 4 4 5 19 36 42 37 48 58 55 48 47 43 44 46 44
95 89 82 69 65 65 52 56 58 44 39 34 30 25 22 18 14 8 6 4 3 2 2 2 4 4 4 2 5 3 9 25 18 43 40 37 38 34 44 46 43 41 42 45 44
99 94 81 76 76 66 60 62 52 39 40 37 32 25 19 13 9 6 5 3 2 2 4 6 4 7 3 2 8 2 13 16 17 70 78 21 46 37 60 53 41 33 33 33 36
99 93 87 79 76 68 66 69 43 50 45 37 31 21 14 10 8 6 3 4 15 16 41 41 41 93 78 47 19 6 10 59 100 97 19 16 40 30 49 73 82 66 29 29 30
96 93 89 82 77 72 69 71 57 50 43 36 26 16 12 9 6 4 3 14 95 77 86 81 30 93 100 96 100 100 100 89 95 89 4 32 62 27 61 67 40 25 25 26 27
99 95 94 87 76 75 75 65 58 50 43 34 21 14 10 6 5 4 5 20 86 57 84 62 56 74 98 86 99 100 100 92 100 98 81 69 35 20 64 66 23 17 19 25 27
100 94 96 85 77 78 76 66 56 50 43 28 18 13 8 6 6 5 12 57 65 56 96 95 42 93 95 84 81 100 100 100 100 100 84 66 69 70 85 95 71 29 22 22 25
95 92 99 82 82 79 72 62 59 52 36 21 14 9 6 6 7 6 49 83 60 55 97 100 93 74 97 100 100 100 100 97 100 98 94 72 67 78 92 100 100 99 15 22 26
94 94 92 82 86 80 71 70 61 48 29 17 10 6 6 8 7 9 72 98 67 60 93 99 80 78 98 100 93 82 100 92 93 98 86 80 76 95 85 100 96 72 31 25 24
98 93 96 94 87 84 84 75 58 38 24 13 8 6 7 11 8 24 31 42 36 40 92 100 98 76 64 100 100 99 100 93 94 95 86 84 86 88 100 96 89 92 49 23 20
96 93 94 86 90 89 85 66 44 27 15 9 7 8 9 13 10 13 11 34 31 52 57 100 100 75 62 93 100 100 81 99 100 100 88 95 81 91 79 100 47 98 34 17 16
100 91 95 89 94 89 76 53 32 16 10 8 8 9 15 14 13 9 27 28 31 43 48 98 100 86 62 49 100 100 100 98 82 96 100 94 94 94 86 51 49 47 48 36 14
96 95 92 83 99 91 66 34 17 11 9 8 8 12 23 15 13 9 23 50 33 29 40 85 98 99 95 75 71 90 98 100 98 91 99 82 95 100 78 96 59 43 25 67 71
96 92 86 91 81 65 40 19 12 10 11 10 11 17 25 15 15 10 16 38 23 24 48 76 64 69 100 80 87 92 100 100 100 100 71 89 97 96 82 50 99 43 32 97 99

GFSSW_500_rhum_120.txt.gz
RH
39 39 36 30 26 24 24 21 20 18 17 16 14 12 10 9 9 8 9 7 10 11 12 17 22 33 34 36 36 47 43 34 34 32 21 30 35 49 50 29 30 25 23 19 13
47 42 38 36 32 28 26 25 22 20 18 17 15 12 11 9 8 7 7 7 7 8 9 9 11 16 27 37 43 43 39 38 46 47 40 52 52 61 40 35 33 24 23 21 16
46 45 42 37 36 31 27 24 23 20 19 17 15 13 12 11 9 9 9 8 7 7 7 7 12 16 22 39 54 51 32 47 49 55 56 50 41 48 31 34 31 31 22 21 20
50 47 45 39 38 35 37 35 34 29 26 22 19 17 14 12 11 10 8 6 7 8 7 7 10 14 18 32 64 72 50 51 46 61 61 55 44 28 36 30 41 37 29 21 22
53 51 48 46 42 42 45 41 35 32 27 23 20 18 16 13 11 11 9 8 7 8 8 11 11 16 29 48 61 70 77 67 56 53 62 65 51 42 26 29 36 36 35 31 27
55 56 53 51 50 50 50 44 38 34 31 26 22 18 16 14 13 12 11 9 9 8 10 11 18 25 20 33 55 73 81 86 71 57 59 69 64 66 39 40 35 34 36 37 33
79 65 60 58 56 54 49 45 43 38 32 26 22 20 17 16 15 14 13 13 14 15 16 18 17 19 27 35 47 66 80 87 88 81 72 71 59 54 59 63 43 34 33 34 40
95 93 74 70 69 83 84 59 46 42 34 26 24 20 16 17 17 16 15 16 16 16 17 18 18 18 11 16 40 55 72 78 81 87 78 97 46 63 70 79 75 59 48 41 40
95 95 95 95 93 82 68 55 55 46 33 27 25 18 16 20 18 17 16 18 17 21 20 20 19 16 8 6 6 6 52 55 89 97 94 100 52 67 79 78 83 94 76 63 61
95 95 95 93 82 74 66 62 57 44 33 28 25 24 23 20 20 18 17 17 15 17 12 13 12 9 6 6 6 5 4 14 43 79 93 98 74 99 75 96 82 90 82 69 65
94 96 94 91 77 72 70 72 53 41 34 31 30 28 26 28 27 25 22 18 15 12 12 10 11 9 8 8 7 6 5 4 27 22 81 98 94 100 100 93 91 84 72 70 62
92 95 94 93 76 75 76 68 52 42 36 37 35 36 33 34 32 26 22 17 14 13 13 12 11 9 8 7 7 7 6 5 4 6 24 84 94 84 97 94 72 81 73 60 61
90 96 94 85 76 81 82 64 54 46 42 36 38 34 33 32 28 24 22 20 18 16 14 12 9 8 5 5 4 4 5 4 4 14 60 53 60 66 79 78 74 61 59 56 50
98 92 90 86 83 85 76 67 60 61 48 36 40 37 33 33 29 26 23 19 16 14 12 10 7 4 3 3 3 4 3 3 8 27 66 57 27 38 59 62 73 62 59 61 60
98 93 92 87 90 90 81 70 67 66 52 42 36 36 37 36 33 26 22 16 11 11 7 5 2 2 2 3 9 5 5 11 17 18 87 69 31 18 48 54 56 68 69 54 53
100 97 95 96 96 90 78 71 75 62 53 47 44 42 43 39 33 25 15 9 5 6 3 2 3 25 37 39 32 15 59 53 25 30 100 26 15 15 19 59 62 82 98 83 60
98 97 99 100 99 86 82 74 71 63 57 50 52 51 45 39 29 18 11 5 3 3 2 2 11 36 94 88 70 86 100 85 72 63 64 3 28 9 23 38 78 87 95 89 60
98 98 99 100 98 91 85 76 73 64 62 63 59 51 45 36 22 13 7 4 3 3 4 15 16 63 80 97 99 85 100 98 100 100 52 16 100 6 28 36 91 100 96 94 66
98 98 100 100 100 98 89 80 74 69 70 63 55 51 40 25 17 9 5 4 4 9 18 26 27 81 100 73 81 100 98 91 100 100 96 99 89 36 42 69 75 93 67 69 46
100 98 100 100 100 100 93 87 74 75 64 60 58 51 30 19 11 6 4 4 6 10 29 40 35 62 62 83 99 100 99 100 96 100 100 96 81 73 52 71 91 92 61 64 44
98 97 100 100 98 100 100 90 80 72 65 63 59 44 25 14 8 5 5 7 14 11 22 64 84 41 86 100 78 100 94 100 98 80 100 98 90 66 75 80 85 69 66 44 98
98 92 97 99 98 97 99 90 83 68 69 67 53 32 18 10 5 5 5 10 16 7 31 74 79 60 95 98 88 100 100 90 100 97 90 97 70 76 96 96 95 99 92 33 30
97 97 100 98 99 97 93 87 78 73 69 64 42 23 12 6 5 5 6 8 7 10 30 74 70 59 62 86 96 94 79 75 76 94 100 69 66 100 96 95 100 66 86 67 96
98 98 100 100 97 95 87 80 75 77 67 51 28 14 8 6 6 6 6 6 8 6 29 52 76 92 39 31 56 100 99 97 63 66 78 100 61 90 98 100 98 82 77 95 98
99 100 100 100 99 92 88 79 76 73 57 35 19 10 6 6 6 8 7 7 8 7 24 43 68 90 73 28 43 87 99 89 80 76 60 62 100 84 97 100 100 93 94 79 92
100 93 100 98 100 90 85 82 81 70 42 23 12 7 7 8 6 7 8 9 8 28 24 32 59 74 88 48 30 44 92 100 83 77 100 82 91 99 85 71 92 97 81 74 79
100 100 98 92 95 88 83 82 66 41 22 11 8 7 9 8 7 9 10 11 8 11 25 40 71 53 93 69 34 65 100 100 100 83 83 68 100 100 98 78 97 93 100 70 51